When you browse on this site, cookies collect data to enhance your experience and personalize the content and advertising you see.
Visit our Privacy Policy to learn more. By continuing to use the site, you agree to this use of cookies and data.

Meteo pe oră la Bocşa

Astăzi, 6 Iulie, Luni

Timp Temperatura Precipitaţii Vânt Presiune Umiditate
00:00 +20°C° 0 mm 1 m/s 741 mmHg 86%
01:00 +20°C° 0 mm 1 m/s 741 mmHg 86%
02:00 +20°C° 0 mm 1 m/s 740 mmHg 87%
03:00 +19°C° 0 mm 1 m/s 740 mmHg 88%
04:00 +19°C° 0 mm 1 m/s 740 mmHg 89%
05:00 +21°C° 0 mm 1 m/s 740 mmHg 85%
06:00 +22°C° 0 mm 1 m/s 740 mmHg 82%
07:00 +24°C° 0 mm 1 m/s 740 mmHg 78%
08:00 +25°C° 0.1 mm 1 m/s 740 mmHg 75%
09:00 +26°C° 0.1 mm 1 m/s 739 mmHg 72%
10:00 +27°C° 0.1 mm 2 m/s 739 mmHg 69%
11:00 +28°C° 0.4 mm 2 m/s 739 mmHg 67%
12:00 +29°C° 0.4 mm 2 m/s 739 mmHg 65%
13:00 +29°C° 0.4 mm 2 m/s 738 mmHg 63%
14:00 +29°C° 0.7 mm 2 m/s 738 mmHg 65%
15:00 +29°C° 0.7 mm 2 m/s 737 mmHg 66%
16:00 +29°C° 0.7 mm 2 m/s 737 mmHg 68%
17:00 +27°C° 0.2 mm 2 m/s 737 mmHg 72%
18:00 +26°C° 0.2 mm 1 m/s 737 mmHg 76%
19:00 +25°C° 0.2 mm 1 m/s 736 mmHg 79%
20:00 +24°C° 0 mm 1 m/s 736 mmHg 81%
21:00 +23°C° 0 mm 1 m/s 736 mmHg 82%
22:00 +20°C° 0 mm 0 m/s 736 mmHg 83%
23:00 +22°C° 0 mm 1 m/s 737 mmHg 82%

Mâine, 7 Iulie, Marţi

Timp Temperatura Precipitaţii Vânt Presiune Umiditate
00:00 +20°C° 0 mm 2 m/s 737 mmHg 81%
01:00 +20°C° 0 mm 3 m/s 737 mmHg 81%
02:00 +19°C° 0 mm 3 m/s 737 mmHg 82%
03:00 +18°C° 0 mm 4 m/s 738 mmHg 83%
04:00 +17°C° 0 mm 4 m/s 738 mmHg 84%
05:00 +17°C° 0 mm 4 m/s 739 mmHg 83%
06:00 +17°C° 0 mm 4 m/s 740 mmHg 82%
07:00 +16°C° 0 mm 5 m/s 740 mmHg 81%
08:00 +16°C° 0 mm 5 m/s 741 mmHg 81%
09:00 +16°C° 0 mm 6 m/s 741 mmHg 81%
10:00 +17°C° 0 mm 7 m/s 742 mmHg 80%
11:00 +17°C° 0 mm 6 m/s 742 mmHg 78%
12:00 +17°C° 0 mm 5 m/s 742 mmHg 76%
13:00 +19°C° 0 mm 5 m/s 742 mmHg 74%
14:00 +19°C° 0.1 mm 5 m/s 742 mmHg 74%
15:00 +19°C° 0.1 mm 5 m/s 742 mmHg 74%
16:00 +19°C° 0.1 mm 5 m/s 742 mmHg 74%
17:00 +18°C° 0 mm 4 m/s 742 mmHg 77%
18:00 +17°C° 0 mm 4 m/s 742 mmHg 80%
19:00 +17°C° 0 mm 3 m/s 742 mmHg 84%
20:00 +16°C° 0 mm 2 m/s 743 mmHg 85%
21:00 +15°C° 0 mm 2 m/s 743 mmHg 87%
22:00 +14°C° 0 mm 1 m/s 744 mmHg 89%
23:00 +13°C° 0 mm 1 m/s 744 mmHg 89%

Poimâine, 8 Iulie, Miercuri

Timp Temperatura Precipitaţii Vânt Presiune Umiditate
00:00 +13°C° 0 mm 1 m/s 744 mmHg 89%
01:00 +12°C° 0 mm 0 m/s 744 mmHg 89%
02:00 +11°C° 0 mm 0 m/s 744 mmHg 89%
03:00 +11°C° 0 mm 0 m/s 744 mmHg 90%
04:00 +11°C° 0 mm 0 m/s 744 mmHg 90%
05:00 +13°C° 0 mm 0 m/s 744 mmHg 85%
06:00 +14°C° 0 mm 0 m/s 745 mmHg 81%
07:00 +16°C° 0 mm 0 m/s 745 mmHg 76%
08:00 +20°C° 0 mm 1 m/s 745 mmHg 70%
09:00 +21°C° 0 mm 1 m/s 745 mmHg 64%
10:00 +23°C° 0 mm 1 m/s 745 mmHg 58%
11:00 +24°C° 0 mm 1 m/s 745 mmHg 55%
12:00 +24°C° 0 mm 2 m/s 745 mmHg 53%
13:00 +25°C° 0 mm 2 m/s 745 mmHg 50%
14:00 +25°C° 0 mm 2 m/s 745 mmHg 51%
15:00 +25°C° 0 mm 1 m/s 744 mmHg 51%
16:00 +25°C° 0 mm 1 m/s 744 mmHg 52%
17:00 +23°C° 0 mm 1 m/s 744 mmHg 58%
18:00 +22°C° 0 mm 1 m/s 744 mmHg 64%
19:00 +20°C° 0 mm 1 m/s 744 mmHg 70%
20:00 +19°C° 0 mm 1 m/s 744 mmHg 71%
21:00 +18°C° 0 mm 1 m/s 745 mmHg 73%
22:00 +16°C° 0 mm 1 m/s 745 mmHg 75%
23:00 +16°C° 0 mm 1 m/s 745 mmHg 76%

9 Iulie, Joi

Timp Temperatura Precipitaţii Vânt Presiune Umiditate
00:00 +15°C° 0 mm 1 m/s 745 mmHg 77%
01:00 +15°C° 0 mm 1 m/s 745 mmHg 79%
02:00 +15°C° 0 mm 1 m/s 745 mmHg 79%
03:00 +14°C° 0 mm 1 m/s 745 mmHg 80%
04:00 +14°C° 0 mm 1 m/s 745 mmHg 80%
05:00 +16°C° 0 mm 1 m/s 745 mmHg 75%
06:00 +19°C° 0 mm 1 m/s 746 mmHg 71%
07:00 +21°C° 0 mm 1 m/s 746 mmHg 66%
08:00 +23°C° 0 mm 1 m/s 746 mmHg 63%
09:00 +24°C° 0 mm 2 m/s 746 mmHg 59%
10:00 +26°C° 0 mm 2 m/s 746 mmHg 55%
11:00 +26°C° 0 mm 2 m/s 746 mmHg 55%
12:00 +27°C° 0 mm 3 m/s 746 mmHg 54%
13:00 +28°C° 0 mm 3 m/s 746 mmHg 53%
14:00 +28°C° 0 mm 3 m/s 746 mmHg 55%
15:00 +28°C° 0 mm 3 m/s 745 mmHg 57%
16:00 +28°C° 0 mm 3 m/s 745 mmHg 59%
17:00 +26°C° 0 mm 3 m/s 745 mmHg 65%
18:00 +24°C° 0 mm 2 m/s 745 mmHg 71%
19:00 +21°C° 0 mm 2 m/s 745 mmHg 77%
20:00 +21°C° 0 mm 2 m/s 745 mmHg 79%
21:00 +20°C° 0 mm 2 m/s 745 mmHg 81%
22:00 +19°C° 0 mm 2 m/s 745 mmHg 83%
23:00 +18°C° 0 mm 2 m/s 745 mmHg 84%

10 Iulie, Vineri

Timp Temperatura Precipitaţii Vânt Presiune Umiditate
00:00 +18°C° 0 mm 2 m/s 745 mmHg 84%
01:00 +18°C° 0 mm 2 m/s 745 mmHg 85%
02:00 +18°C° 0 mm 2 m/s 745 mmHg 84%
03:00 +17°C° 0 mm 2 m/s 745 mmHg 84%
04:00 +17°C° 0 mm 2 m/s 745 mmHg 83%
05:00 +19°C° 0 mm 2 m/s 745 mmHg 79%
06:00 +21°C° 0 mm 2 m/s 745 mmHg 74%
07:00 +24°C° 0 mm 1 m/s 745 mmHg 69%
08:00 +26°C° 0 mm 1 m/s 745 mmHg 64%
09:00 +27°C° 0 mm 1 m/s 745 mmHg 58%
10:00 +29°C° 0 mm 1 m/s 745 mmHg 53%
11:00 +30°C° 0 mm 2 m/s 745 mmHg 51%
12:00 +31°C° 0 mm 2 m/s 744 mmHg 48%
13:00 +31°C° 0 mm 2 m/s 744 mmHg 46%
14:00 +31°C° 0 mm 2 m/s 744 mmHg 49%
15:00 +31°C° 0 mm 2 m/s 744 mmHg 52%
16:00 +31°C° 0 mm 3 m/s 743 mmHg 54%
17:00 +29°C° 0 mm 2 m/s 743 mmHg 59%
18:00 +27°C° 0 mm 2 m/s 743 mmHg 64%
19:00 +25°C° 0 mm 2 m/s 743 mmHg 69%
20:00 +25°C° 0 mm 3 m/s 743 mmHg 67%
21:00 +23°C° 0 mm 4 m/s 743 mmHg 65%
22:00 +23°C° 0 mm 4 m/s 743 mmHg 63%
23:00 +22°C° 0 mm 4 m/s 743 mmHg 64%

11 Iulie, Sâmbătă

Timp Temperatura Precipitaţii Vânt Presiune Umiditate
00:00 +22°C° 0 mm 4 m/s 743 mmHg 65%
01:00 +22°C° 0 mm 4 m/s 743 mmHg 66%
02:00 +21°C° 0 mm 4 m/s 742 mmHg 68%
03:00 +21°C° 0 mm 4 m/s 742 mmHg 70%
04:00 +20°C° 0 mm 3 m/s 742 mmHg 72%
05:00 +22°C° 0 mm 4 m/s 742 mmHg 70%
06:00 +23°C° 0 mm 4 m/s 742 mmHg 68%
07:00 +25°C° 0 mm 4 m/s 742 mmHg 66%
08:00 +27°C° 0 mm 4 m/s 743 mmHg 61%
09:00 +28°C° 0 mm 4 m/s 743 mmHg 55%
10:00 +30°C° 0 mm 4 m/s 743 mmHg 50%
11:00 +30°C° 0 mm 4 m/s 742 mmHg 48%
12:00 +32°C° 0 mm 4 m/s 742 mmHg 47%
13:00 +32°C° 0 mm 4 m/s 742 mmHg 46%
14:00 +32°C° 0 mm 4 m/s 742 mmHg 48%
15:00 +31°C° 0 mm 3 m/s 741 mmHg 50%
16:00 +31°C° 0 mm 3 m/s 741 mmHg 53%
17:00 +29°C° 0 mm 3 m/s 741 mmHg 58%
18:00 +27°C° 0 mm 3 m/s 741 mmHg 63%
19:00 +25°C° 0 mm 2 m/s 741 mmHg 68%
20:00 +24°C° 0 mm 2 m/s 741 mmHg 68%
21:00 +23°C° 0 mm 2 m/s 741 mmHg 68%
22:00 +23°C° 0 mm 2 m/s 742 mmHg 67%
23:00 +21°C° 0 mm 2 m/s 742 mmHg 72%
Arată mai mult